[[{"header":{"parameterUnit":"m.s-1","parameterCategory":1,"la1":30.2991,"la2":30.254,"lo1":-89.0895,"lo2":-89.0444,"dy":0.0017,"dx":0.0017,"nx":28,"ny":28,"refTime":"2024-12-05T09:00:00:Z","depth":0,"parameterNumber":2,"parameterNumberName":"U-component_of_WINDS"},"data":[0,0,0,0,0,0,0,0,0,0,0,0,0,0,0,0,0,0,0,0,0,0,0,0,0,0,0,0,0,0,0,0,0,0,0,0,0,0,0,0,0,0,0,0,0,0,0,0,0,0,0,0,0,0,0,0,0,0,-4.2289,-4.229,0,-4.2341,-4.2341,-4.2342,-4.219,-4.2185,-4.218,-4.2176,-4.223,-4.2236,-4.2242,0,0,0,0,0,0,0,0,0,0,0,0,0,-4.2059,-4.2064,-4.2289,-4.229,-4.229,-4.2341,-4.2341,-4.2342,-4.2191,-4.2185,-4.2179,-4.2174,-4.2229,-4.2235,-4.2242,0,0,0,0,0,0,0,0,0,0,0,0,0,-4.214,-4.2066,-4.2289,-4.2221,-4.2215,-4.234,-4.2341,-4.2342,-4.2192,-4.2185,-4.2178,-4.2171,-4.2226,-4.2235,-4.2243,-4.2437,0,0,-4.227,-4.2274,0,0,0,0,0,0,0,0,-4.2135,-4.2148,-4.223,-4.2226,-4.222,-4.2251,-4.228,-4.2374,-4.2194,-4.2201,-4.2176,-4.2168,-4.2243,-4.225,-4.2275,-4.244,-4.2442,-4.2271,-4.2276,-4.228,-4.2282,0,0,0,0,0,0,0,-4.213,-4.2145,-4.2309,-4.2231,-4.2225,-4.2187,-4.2191,-4.2297,-4.2261,-4.22,-4.2189,-4.2197,-4.2239,-4.2267,-4.2275,-4.2443,-4.227,-4.2278,-4.2283,-4.2287,-4.2768,-4.2775,0,0,0,0,0,0,-4.2133,-4.2142,-4.2308,-4.2311,-4.2159,-4.2197,-4.2201,-4.2248,-4.2259,-4.2254,-4.2203,-4.2189,-4.2256,-4.2265,-4.2277,-4.2504,-4.228,-4.2288,-4.2293,-4.276,-4.2769,-4.2777,0,0,0,0,0,0,-4.2129,-4.2149,-4.2306,-4.2223,-4.224,-4.2209,-4.2263,-4.2253,-4.2281,-4.2261,-4.2254,-4.2238,-4.2251,-4.2264,-4.2398,-4.2504,-4.2292,-4.23,-4.2751,-4.2763,-4.2773,-4.296,0,0,0,0,0,0,-4.2123,-4.2149,-4.2222,-4.2226,-4.2245,-4.2427,-4.2269,-4.2259,-4.2296,-4.228,-4.2293,-4.2288,-4.2246,-4.2386,-4.2407,-4.2512,-4.2306,-4.2742,-4.2756,-4.277,-4.2945,-4.2977,-4.3004,0,0,0,0,0,-4.2115,-4.2274,-4.2227,-4.2248,-4.2337,-4.2433,-4.2444,-4.2392,-4.2306,-4.2379,-4.2366,-4.2288,-4.2488,-4.2401,-4.2423,-4.2532,-4.2735,-4.2752,-4.2769,-4.2931,-4.297,-4.3003,0,0,0,0,0,0,-4.2284,-4.2273,-4.2221,-4.2385,-4.2411,-4.2407,-4.2499,-4.2435,-4.2487,-4.2469,-4.2402,-4.2407,-4.2552,-4.2555,-4.2458,-4.272,-4.2597,-4.2619,-4.2713,-4.275,-4.2779,-4.2776,-4.2314,0,0,0,0,0,-4.234,-4.242,-4.2405,-4.2552,-4.2567,-4.2531,-4.2571,-4.2529,-4.2553,-4.2564,-4.256,-4.2587,-4.2656,-4.2703,-4.2765,-4.2944,-4.2944,-4.303,-4.3059,-4.3084,-4.3104,-4.3198,-4.3236,-4.2833,-4.2833,-4.2833,0,0,-4.2458,-4.2461,-4.2516,-4.2586,-4.2601,-4.2684,-4.2542,-4.2636,-4.2697,-4.2578,-4.2704,-4.2702,-4.2728,-4.2885,-4.2954,-4.2892,-4.3215,-4.3106,-4.3125,-4.3132,-4.322,-4.3258,-4.3292,-4.2845,-4.2843,-4.2841,0,0,-4.2714,-4.2725,-4.2848,-4.2865,-4.289,-4.2864,-4.2894,-4.2899,-4.2894,-4.3018,-4.293,-4.3002,-4.3122,-4.3143,-4.317,-4.3433,-4.3363,-4.3455,-4.3611,-4.3703,-4.3735,-4.3762,-4.3856,-4.389,-4.3475,-4.3475,-4.3476,0,-4.2857,-4.298,-4.2919,-4.302,-4.3053,-4.2947,-4.3071,-4.3091,-4.3135,-4.316,-4.3089,-4.3237,-4.3247,-4.3407,-4.3471,-4.3496,-4.3527,-4.3454,-4.3735,-4.3762,-4.3787,-4.3876,-4.3911,-4.3486,-4.3485,-4.3484,-4.3483,0,-4.3154,-4.324,-4.3336,-4.338,-4.3424,-4.3536,-4.3492,-4.3544,-4.3497,-4.3479,-4.3607,-4.3614,-4.3676,-4.371,-4.3666,-4.3864,-4.3825,-4.3746,-4.3621,-4.3838,-4.392,-4.3953,-4.3502,-4.3498,-4.3495,-4.3492,0,0,-4.352,-4.3528,-4.3564,-4.3583,-4.3601,-4.3666,-4.3772,-4.3831,-4.3877,-4.391,-4.3998,-4.4101,-4.4027,-4.4058,-4.4014,-4.4095,-4.4303,-4.4006,-4.4005,-4.4061,-4.4521,-4.4581,-4.4621,-4.4256,-4.4262,-4.4267,-4.4519,0,-4.3773,-4.3955,-4.3903,-4.4085,-4.4164,-4.4063,-4.4156,-4.4177,-4.4163,-4.4227,-4.421,-4.4284,-4.4182,-4.4199,-4.4275,-4.4262,-4.4394,-4.4242,-4.4336,-4.4341,-4.4334,-4.4664,-4.4727,-4.4965,-4.455,-4.4556,-4.456,0,-4.4092,-4.4137,-4.4328,-4.4331,-4.4362,-4.4446,-4.4496,-4.4558,-4.458,-4.4563,-4.4597,-4.4536,-4.464,-4.4514,-4.4656,-4.4555,-4.4589,-4.4588,-4.4596,-4.4604,-4.4464,-4.4681,-4.504,-4.5076,-4.461,-4.4606,-4.4602,0,-4.4341,-4.4449,-4.4576,-4.4594,-4.4602,-4.4663,-4.467,-4.4684,-4.4722,-4.4765,-4.4789,-4.4845,-4.4875,-4.4919,-4.4875,-4.4787,-4.5024,-4.4894,-4.5013,-4.5015,-4.5069,-4.5066,-4.5439,-4.5091,-4.509,-4.509,-4.5089,0,-4.4629,-4.4749,-4.4687,-4.4766,-4.4897,-4.4836,-4.4968,-4.4962,-4.4976,-4.5051,-4.4967,-4.504,-4.4977,-4.5044,-4.501,-4.5133,-4.5147,-4.5137,-4.5126,-4.5145,-4.5146,-4.5167,-4.515,-4.5099,-4.5097,-4.5095,-4.5094,0,-4.4929,-4.4892,-4.5024,-4.502,-4.5022,-4.5119,-4.5115,-4.5187,-4.5166,-4.5262,-4.5281,-4.5249,-4.5323,-4.5283,-4.536,-4.5336,-4.5496,-4.5463,-4.5489,-4.548,-4.5601,-4.5591,-4.6002,-4.6052,-4.5672,-4.5675,-4.5678,0,-4.5115,-4.5205,-4.521,-4.5255,-4.5266,-4.5339,-4.5377,-4.5319,-4.5363,-4.5393,-4.5462,-4.5529,-4.5579,-4.5702,-4.5685,-4.5743,-4.5711,-4.5851,-4.5719,-4.5735,-4.5713,-4.5709,-4.5717,-4.5878,-4.5882,-4.5886,-4.5889,0,-4.545,-4.5427,-4.5486,-4.5539,-4.5586,-4.5625,-4.5657,-4.5698,-4.564,-4.5693,-4.5768,-4.5807,-4.5884,-4.5952,-4.6001,-4.6007,-4.5939,-4.593,-4.5961,-4.5981,-4.5992,-4.5988,-4.5561,-4.5921,-4.5918,-4.5916,-4.5914,-4.5913,-4.5699,-4.5774,-4.5789,-4.5857,-4.5874,-4.5905,-4.5973,-4.5959,-4.602,-4.6078,-4.604,-4.6128,-4.6145,-4.6205,-4.6219,-4.6287,-4.6231,-4.6275,-4.6286,-4.6298,-4.6315,-4.5981,-4.6295,-4.6294,-4.6293,-4.6293,-4.6292,0,-4.603,-4.6034,-4.6097,-4.6143,-4.6196,-4.6126,-4.6157,-4.6206,-4.6285,-4.6306,-4.6357,-4.6442,-4.6507,-4.6494,-4.6552,-4.6609,-4.6579,-4.6626,-4.6622,-4.6624,-4.6362,-4.6329,-4.6649,-4.6649,-4.6649,-4.6649,-4.6649,-4.6649,-4.6208,-4.6331,-4.631,-4.644,-4.6443,-4.6528,-4.6551,-4.6579,-4.6596,-4.6695,-4.6748,-4.6739,-4.6746,-4.6804,-4.686,-4.6854,-4.688,-4.6939,-4.6922,-4.6678,-4.6642,-4.6609,-4.6578,-4.6945,-4.6945,-4.7178,-4.718,-4.7182]},{"header":{"parameterUnit":"m.s-1","parameterCategory":1,"la1":30.2991,"la2":30.254,"lo1":-89.0895,"lo2":-89.0444,"dy":0.0017,"dx":0.0017,"nx":28,"ny":28,"refTime":"2024-12-05T09:00:00:Z","depth":0,"parameterNumber":3,"parameterNumberName":"V-component_of_WINDS"},"data":[0,0,0,0,0,0,0,0,0,0,0,0,0,0,0,0,0,0,0,0,0,0,0,0,0,0,0,0,0,0,0,0,0,0,0,0,0,0,0,0,0,0,0,0,0,0,0,0,0,0,0,0,0,0,0,0,0,0,-4.2105,-4.2105,0,-4.2162,-4.2162,-4.2163,-4.2106,-4.2104,-4.2102,-4.2099,-4.2155,-4.2158,-4.2162,0,0,0,0,0,0,0,0,0,0,0,0,0,-4.1942,-4.1945,-4.2105,-4.2105,-4.2106,-4.2162,-4.2162,-4.2163,-4.2106,-4.2104,-4.2101,-4.2098,-4.2154,-4.2158,-4.2162,0,0,0,0,0,0,0,0,0,0,0,0,0,-4.2007,-4.1946,-4.2105,-4.2085,-4.2083,-4.2162,-4.2162,-4.2163,-4.2107,-4.2104,-4.21,-4.2097,-4.2152,-4.2157,-4.2163,-4.2263,0,0,-4.2179,-4.2181,0,0,0,0,0,0,0,0,-4.2003,-4.2013,-4.2087,-4.2086,-4.2085,-4.2123,-4.2125,-4.2197,-4.2108,-4.2098,-4.2099,-4.2095,-4.2147,-4.2152,-4.217,-4.2265,-4.2267,-4.2179,-4.2183,-4.2185,-4.2186,0,0,0,0,0,0,0,-4.1999,-4.201,-4.2127,-4.2088,-4.2087,-4.2071,-4.2077,-4.2138,-4.214,-4.2099,-4.2095,-4.2102,-4.2146,-4.2165,-4.2171,-4.2268,-4.2179,-4.2184,-4.2187,-4.2189,-4.2445,-4.2448,0,0,0,0,0,0,-4.1997,-4.2007,-4.2125,-4.2129,-4.2035,-4.2077,-4.2083,-4.2114,-4.214,-4.214,-4.2105,-4.2099,-4.2158,-4.2165,-4.2173,-4.2289,-4.2185,-4.219,-4.2193,-4.2441,-4.2445,-4.2449,0,0,0,0,0,0,-4.1994,-4.2008,-4.2123,-4.2067,-4.208,-4.2083,-4.2119,-4.2117,-4.2137,-4.2145,-4.2144,-4.2125,-4.2156,-4.2165,-4.224,-4.2291,-4.2192,-4.2197,-4.2437,-4.2442,-4.2447,-4.2525,0,0,0,0,0,0,-4.1989,-4.2008,-4.2047,-4.2068,-4.2084,-4.2191,-4.2122,-4.2121,-4.2147,-4.214,-4.2163,-4.2164,-4.2154,-4.2233,-4.2245,-4.2296,-4.2201,-4.2432,-4.2439,-4.2446,-4.2518,-4.2532,-4.2544,0,0,0,0,0,-4.1984,-4.2066,-4.2049,-4.2064,-4.2133,-4.2194,-4.2203,-4.219,-4.2151,-4.2189,-4.2194,-4.2163,-4.2283,-4.2241,-4.2255,-4.2308,-4.2429,-4.2437,-4.2445,-4.2512,-4.2529,-4.2544,0,0,0,0,0,0,-4.205,-4.2069,-4.205,-4.2142,-4.2167,-4.2184,-4.2233,-4.221,-4.2245,-4.2237,-4.2219,-4.2225,-4.2304,-4.2313,-4.2266,-4.2404,-4.2349,-4.2361,-4.2395,-4.2412,-4.2425,-4.2421,-4.2206,0,0,0,0,0,-4.2076,-4.2125,-4.2138,-4.2218,-4.2232,-4.223,-4.2256,-4.2244,-4.2269,-4.2279,-4.2289,-4.2313,-4.2356,-4.2385,-4.2425,-4.2519,-4.2522,-4.2562,-4.2575,-4.2586,-4.2596,-4.2644,-4.2661,-4.2476,-4.2476,-4.2475,0,0,-4.2128,-4.2145,-4.2177,-4.2232,-4.225,-4.2299,-4.2239,-4.2295,-4.2331,-4.2287,-4.2358,-4.2366,-4.2392,-4.2476,-4.2514,-4.2486,-4.2648,-4.2597,-4.2605,-4.2609,-4.2654,-4.2672,-4.2687,-4.2481,-4.248,-4.2479,0,0,-4.225,-4.2268,-4.2336,-4.2355,-4.2383,-4.2381,-4.2397,-4.2418,-4.2421,-4.2493,-4.246,-4.2502,-4.2577,-4.2595,-4.2615,-4.2741,-4.2713,-4.2755,-4.2824,-4.2871,-4.2886,-4.2899,-4.2942,-4.2958,-4.2765,-4.2765,-4.2765,0,-4.2312,-4.2387,-4.2373,-4.2431,-4.2455,-4.2417,-4.2484,-4.2503,-4.2542,-4.2559,-4.2528,-4.262,-4.2634,-4.2721,-4.2752,-4.277,-4.2786,-4.2752,-4.2885,-4.2898,-4.291,-4.295,-4.2967,-4.2769,-4.2769,-4.2768,-4.2768,0,-4.246,-4.2513,-4.2564,-4.2603,-4.2632,-4.2695,-4.2688,-4.272,-4.2705,-4.2705,-4.2777,-4.2793,-4.2835,-4.2854,-4.2841,-4.2939,-4.2921,-4.2888,-4.2832,-4.2932,-4.297,-4.2986,-4.2776,-4.2774,-4.2773,-4.2772,0,0,-4.2626,-4.2655,-4.2674,-4.269,-4.2718,-4.2757,-4.2816,-4.2858,-4.2884,-4.2912,-4.2959,-4.3023,-4.2992,-4.3014,-4.3002,-4.3043,-4.3139,-4.3005,-4.3005,-4.3028,-4.3246,-4.327,-4.3288,-4.3122,-4.3125,-4.3127,-4.3243,0,-4.2747,-4.2851,-4.2839,-4.2937,-4.2984,-4.2948,-4.2999,-4.3021,-4.3023,-4.3061,-4.3063,-4.3107,-4.3065,-4.3077,-4.3117,-4.312,-4.3183,-4.3111,-4.3164,-4.3166,-4.3157,-4.3308,-4.3334,-4.3443,-4.3258,-4.3261,-4.3263,0,-4.2902,-4.2935,-4.3038,-4.3056,-4.3075,-4.3122,-4.3157,-4.3196,-4.3218,-4.3216,-4.324,-4.322,-4.3277,-4.3221,-4.3298,-4.325,-4.327,-4.3275,-4.3279,-4.3282,-4.322,-4.3314,-4.3478,-4.3494,-4.3286,-4.3284,-4.3283,0,-4.3009,-4.308,-4.3151,-4.3166,-4.3189,-4.3222,-4.3233,-4.3252,-4.3277,-4.3308,-4.3323,-4.336,-4.338,-4.3408,-4.3397,-4.3358,-4.3476,-4.342,-4.3475,-4.3475,-4.35,-4.3499,-4.3668,-4.3516,-4.3516,-4.3516,-4.3516,0,-4.3145,-4.3209,-4.3199,-4.3242,-4.3312,-4.3297,-4.3366,-4.3372,-4.3389,-4.3432,-4.3403,-4.3443,-4.3427,-4.3466,-4.3458,-4.3522,-4.3531,-4.353,-4.3527,-4.3532,-4.3532,-4.3544,-4.3536,-4.352,-4.3519,-4.3518,-4.3518,0,-4.3277,-4.3273,-4.3347,-4.3363,-4.3368,-4.3419,-4.3431,-4.3471,-4.347,-4.3524,-4.3535,-4.3534,-4.3577,-4.357,-4.3618,-4.3612,-4.3692,-4.368,-4.3685,-4.3681,-4.3736,-4.373,-4.3918,-4.3941,-4.3776,-4.3778,-4.3779,0,-4.3363,-4.3411,-4.3432,-4.3458,-4.3472,-4.3515,-4.354,-4.3526,-4.3553,-4.3581,-4.3617,-4.3658,-4.369,-4.3761,-4.3763,-4.3799,-4.3787,-4.385,-4.3792,-4.3795,-4.3786,-4.3782,-4.3786,-4.3862,-4.3863,-4.3865,-4.3866,0,-4.3515,-4.351,-4.3548,-4.3585,-4.3615,-4.3643,-4.3668,-4.3691,-4.3679,-4.3711,-4.3755,-4.378,-4.3829,-4.3869,-4.3903,-4.3912,-4.3887,-4.3885,-4.3899,-4.3904,-4.3904,-4.3902,-4.3714,-4.388,-4.3879,-4.3878,-4.3877,-4.3876,-4.3625,-4.3665,-4.3686,-4.3728,-4.3745,-4.3769,-4.3806,-4.381,-4.3847,-4.3886,-4.3876,-4.3925,-4.3944,-4.3986,-4.3999,-4.4037,-4.4013,-4.4035,-4.404,-4.4045,-4.405,-4.3899,-4.4043,-4.4043,-4.4042,-4.4042,-4.4042,0,-4.3774,-4.3785,-4.3824,-4.386,-4.3893,-4.3867,-4.3893,-4.3921,-4.3966,-4.3986,-4.4018,-4.4068,-4.4106,-4.4111,-4.4147,-4.4176,-4.4165,-4.4186,-4.4183,-4.4185,-4.4071,-4.4054,-4.4194,-4.4194,-4.4194,-4.4194,-4.4194,-4.4194,-4.3855,-4.3922,-4.3919,-4.3993,-4.4003,-4.4052,-4.4069,-4.409,-4.4105,-4.4163,-4.4195,-4.4198,-4.4211,-4.4248,-4.4281,-4.4281,-4.4295,-4.432,-4.4316,-4.4209,-4.4193,-4.4179,-4.4163,-4.4324,-4.4324,-4.4427,-4.4428,-4.4429]}]]